Weather History for Port Angeles, WA

Change the Weather History Date:

Tuesday, September 10, 2013

  Actual Average Record
Temperature  
Mean Temperature 62 °F -  
Max Temperature 77 °F 66 °F 83 °F (1963)
Min Temperature 48 °F 48 °F 37 °F (1999)
Degree Days  
Heating Degree Days 4    
Growing Degree Days 12 (Base 50)    
Moisture  
Dew Point 52 °F    
Average Humidity 79    
Maximum Humidity 100    
Minimum Humidity 43    
Precipitation  
Precipitation 0.00 in - - ()
Sea Level Pressure  
Sea Level Pressure 29.99 in    
Wind  
Wind Speed 4 mph (SE)    
Max Wind Speed 9 mph    
Max Gust Speed -    
Visibility 7 miles    
Events Fog    
Averages and records for this station are not official NWS values.
T = Trace of Precipitation, MM = Missing Value Source: NWS Daily Summary

Daily Weather History Graph

Daily Weather History Graph

Search for Another Location

Airport:

Trip Planner

Search our weather history database for the weather conditions in past years. The results will help you decide how hot, cold, wet, or windy it might be!

Date:

Astronomy

Sep. 10, 2013 Rise Set
Actual Time 6:44 AM PDT 7:36 PM PDT
Civil Twilight 6:13 AM PDT 8:07 PM PDT
Nautical Twilight 5:35 AM PDT 8:45 PM PDT
Astronomical Twilight 4:55 AM PDT 9:24 PM PDT
Moon 12:43 PM PDT (9/10) 10:15 PM PDT (9/10)
Length of Visible Light 13h 54m
Length of Day
12h 51m
Waxing Crescent, 29% of the Moon is Illuminated
Sep 10
Waxing Crescent
Sep 12
First Quarter
Sep 19
Full
Sep 26
Last Quarter
Oct 4
New

Hourly Weather History & Observations

Time (PDT) Temp. Dew Point Humidity Pressure Visibility Wind Dir Wind Speed Gust Speed Precip Events Conditions
12:53 AM 53.1 °F 53.1 °F 100% 30.02 in 0.2 mi WNW 3.5 mph - N/A Fog Fog
1:53 AM 52.0 °F 51.1 °F 97% 30.02 in 0.2 mi SW 4.6 mph - N/A Fog Fog
2:03 AM 51.1 °F 51.1 °F 100% 30.02 in 0.8 mi SW 3.5 mph - N/A   Mist
2:07 AM 51.1 °F 50.0 °F 96% 30.02 in 2.0 mi SW 3.5 mph - N/A   Mostly Cloudy
2:12 AM 51.1 °F 50.0 °F 96% 30.02 in 3.0 mi SW 3.5 mph - N/A   Scattered Clouds
2:53 AM 50.0 °F 50.0 °F 100% 30.02 in 10.0 mi Calm Calm - N/A   Clear
3:17 AM 50.0 °F 48.9 °F 96% 30.02 in 1.5 mi Calm Calm - N/A   Partly Cloudy
3:22 AM 48.9 °F 48.0 °F 97% 30.02 in 0.8 mi Calm Calm - N/A   Mist
3:38 AM 50.0 °F 48.9 °F 96% 30.01 in 1.2 mi Calm Calm - N/A   Scattered Clouds
3:40 AM 50.0 °F 48.9 °F 96% 30.01 in 3.0 mi Calm Calm - N/A   Scattered Clouds
3:53 AM 48.9 °F 46.9 °F 93% 30.01 in 2.5 mi Calm Calm - N/A   Scattered Clouds
4:06 AM 50.0 °F 48.0 °F 93% 30.01 in 10.0 mi Calm Calm - N/A   Partly Cloudy
4:53 AM 50.0 °F 48.9 °F 96% 30.01 in 10.0 mi SSE 3.5 mph - N/A   Clear
5:53 AM 50.0 °F 48.9 °F 96% 30.01 in 10.0 mi Calm Calm - N/A   Clear
6:53 AM 50.0 °F 48.9 °F 96% 30.02 in 10.0 mi Calm Calm - N/A   Clear
7:53 AM 55.9 °F 54.0 °F 93% 30.02 in 10.0 mi South 3.5 mph - N/A   Clear
8:53 AM 66.9 °F 55.0 °F 66% 30.03 in 10.0 mi SE 9.2 mph - N/A   Clear
9:53 AM 69.1 °F 53.1 °F 57% 30.03 in 10.0 mi East 6.9 mph - N/A   Clear
10:53 AM 70.0 °F 54.0 °F 57% 30.02 in 10.0 mi East 9.2 mph - N/A   Clear
11:53 AM 69.1 °F 55.0 °F 61% 30.02 in 10.0 mi East 9.2 mph - N/A   Clear
12:53 PM 71.1 °F 55.9 °F 59% 30.00 in 10.0 mi East 8.1 mph - N/A   Clear
1:53 PM 73.0 °F 57.0 °F 57% 29.99 in 10.0 mi ESE 8.1 mph - N/A   Clear
2:53 PM 75.0 °F 57.0 °F 53% 29.97 in 10.0 mi East 6.9 mph - N/A   Clear
3:53 PM 75.9 °F 55.0 °F 48% 29.96 in 10.0 mi East 9.2 mph - N/A   Clear
4:53 PM 75.9 °F 52.0 °F 43% 29.94 in 10.0 mi East 9.2 mph - N/A   Clear
5:53 PM 75.0 °F 54.0 °F 48% 29.94 in 10.0 mi East 6.9 mph - N/A   Clear
6:53 PM 73.0 °F 54.0 °F 51% 29.93 in 10.0 mi SE 5.8 mph - N/A   Clear
7:53 PM 64.9 °F 55.0 °F 70% 29.93 in 10.0 mi Calm Calm - N/A   Clear
8:53 PM 62.1 °F 55.0 °F 78% 29.93 in 10.0 mi Calm Calm - N/A   Clear
9:53 PM 59.0 °F 54.0 °F 83% 29.93 in 10.0 mi South 4.6 mph - N/A   Clear
10:53 PM 60.1 °F 54.0 °F 80% 29.93 in 10.0 mi SSE 4.6 mph - N/A   Clear
11:53 PM 64.9 °F 54.0 °F 68% 29.94 in 10.0 mi SE 4.6 mph - N/A   Clear